Location: Mountain View
(37.3861°N, 122.0839°W)
Time: 19:50:40
(UTC-07:00)

ACS3 Solar Sail - Pass Details

Date: 19 May 2026
Orbit: 875 x 955 km, 97.2° (Epoch: 9 June)

Event Time Altitude Azimuth Distance (km) Brightness Sun altitude
Rises 01:46:42 0° 12° (NNE) 3,478 5.8 -32.0°
Reaches altitude 10° 01:49:06 10° 13° (NNE) 2,534 4.8 -31.9°
Enters shadow 01:53:48 63° 30° (NNE) 977 1.9 -31.7°
